This is the latest recevied weather packets stored in our database for station/object NR6G-15. If no packets are shown the sender has not sent any weather packets the latest 10 day(s).
| Time | Temp. | Humidity | Pressure | Rain* | Wind** | Luminosity | Snow |
|---|---|---|---|---|---|---|---|
| 1787683197 | 24.44° C | 35% | 1029.2 hPa | 0 mm | - | - | - |
| 1787682897 | 24.44° C | 34% | 1029.2 hPa | 0 mm | - | - | - |
| 1787682597 | 24.44° C | 36% | 1029.2 hPa | 0 mm | - | - | - |
| 1787682297 | 24.44° C | 36% | 1029.3 hPa | 0 mm | - | - | - |
| 1787681997 | 23.89° C | 36% | 1029.3 hPa | 0 mm | - | - | - |
| 1787681697 | 24.44° C | 35% | 1029.3 hPa | 0 mm | - | - | - |
| 1787681397 | 24.44° C | 33% | 1029.2 hPa | 0 mm | - | - | - |
| 1787681097 | 24.44° C | 34% | 1029.3 hPa | 0 mm | - | - | - |
| 1787680797 | 24.44° C | 35% | 1029.3 hPa | 0 mm | - | - | - |
| 1787680497 | 24.44° C | 33% | 1029.4 hPa | 0 mm | - | - | - |
| 1787680197 | 24.44° C | 34% | 1028.6 hPa | 0 mm | - | - | - |
| 1787679897 | 25° C | 32% | 1028.6 hPa | 0 mm | - | - | - |
| 1787679597 | 25° C | 33% | 1028.6 hPa | 0 mm | - | - | - |
| 1787679297 | 25° C | 34% | 1028.6 hPa | 0 mm | - | - | - |
| 1787678997 | 25° C | 33% | 1028.6 hPa | 0 mm | - | - | - |
| 1787678697 | 25.56° C | 32% | 1028.6 hPa | 0 mm | - | - | - |
| 1787678129 | 25° C | 34% | 1028.7 hPa | 0 mm | - | - | - |
| 1787677829 | 25° C | 32% | 1028.7 hPa | 0 mm | - | - | - |
| 1787677529 | 24.44° C | 33% | 1028.7 hPa | 0 mm | - | - | - |
| 1787677229 | 24.44° C | 32% | 1028.7 hPa | 0 mm | - | - | - |
| 1787676929 | 24.44° C | 33% | 1028.7 hPa | 0 mm | - | - | - |
| 1787676629 | 24.44° C | 31% | 1028.7 hPa | 0 mm | - | - | - |
| 1787676329 | 24.44° C | 34% | 1028.6 hPa | 0 mm | - | - | - |
| 1787675796 | 24.44° C | 32% | 1028.6 hPa | 0 mm | - | - | - |
| 1787675496 | 24.44° C | 33% | 1028.5 hPa | 0 mm | - | - | - |
* Rain latest hour (hover to see other rain measurements)
** Current wind speed in m/s (hover to see current wind gust speed)